Elmo, TX

3:43 AM CST on February 06, 2016 (GMT -0600)
Terrell Municipal

Weather History for KTRL - October, 2013

Change the Weather History Date:

Saturday, October 12, 2013

  Actual Average (KDFW) Record (KDFW)
Temperature  
Mean Temperature 78 °F 69 °F  
Max Temperature 88 °F 80 °F 97 °F (1979)
Min Temperature 71 °F 58 °F 35 °F (1977)
Degree Days  
Heating Degree Days 0 1  
Month to date heating degree days 12  
Since 1 July heating degree days 18  
Cooling Degree Days 14 5  
Month to date cooling degree days 78  
Year to date cooling degree days 2655  
Growing Degree Days 28 (Base 50)    
Moisture  
Dew Point 73 °F    
Average Humidity 87    
Maximum Humidity 100    
Minimum Humidity 62    
Precipitation  
Precipitation 0.84 in 0.14 in 3.53 in (1969)
Month to date precipitation 1.36  
Year to date precipitation 28.02  
Snow  
Snow 0.00 in 0.00 in 0.00 in ()
Month to date snowfall 0.0  
Since 1 July snowfall 0.0  
Since 1 September snowfall 0.0  
Snow Depth -    
Sea Level Pressure  
Sea Level Pressure 29.97 in    
Wind  
Wind Speed 7 mph (SSE)    
Max Wind Speed 16 mph    
Max Gust Speed 23 mph    
Visibility 9 miles    
Events Fog , Rain , Thunderstorm    
T = Trace of Precipitation, MM = Missing Value Source: NWS Daily Summary

Daily Weather History Graph

Daily Weather History Graph

Search for Another Location

Airport or City:

Trip Planner

Search our weather history database for the weather conditions in past years. The results will help you decide how hot, cold, wet, or windy it might be!

Date:

Astronomy

Oct. 12, 2013 Rise Set
Actual Time 7:27 AM CDT 6:55 PM CDT
Civil Twilight 7:02 AM CDT 7:20 PM CDT
Nautical Twilight 6:33 AM CDT 7:48 PM CDT
Astronomical Twilight 6:05 AM CDT 8:17 PM CDT
Moon 2:47 PM CDT (10/12) 12:51 AM CDT (10/12)
Length of Visible Light 12h 17m
Length of Day
11h 28m
First Quarter, 59% of the Moon is Illuminated
Oct 12
First Quarter
Oct 18
Full
Oct 26
Last Quarter
Nov 3
New
Nov 9
First Quarter

Hourly Weather History & Observations

Time (CDT) Temp. Heat Index Dew Point Humidity Pressure Visibility Wind Dir Wind Speed Gust Speed Precip Events Conditions
12:53 AM 75.9 °F - 71.1 °F 85% 29.89 in 10.0 mi South 8.1 mph - N/A   Clear
1:53 AM 75.9 °F - 72.0 °F 87% 29.90 in 10.0 mi South 6.9 mph - N/A   Overcast
2:53 AM 75.0 °F - 73.0 °F 94% 29.90 in 10.0 mi South 5.8 mph - N/A   Mostly Cloudy
3:53 AM 75.9 °F - 73.0 °F 91% 29.90 in 10.0 mi South 8.1 mph - N/A   Overcast
4:04 AM 75.2 °F - 73.4 °F 94% 29.92 in 10.0 mi South 8.1 mph - N/A   Overcast
4:53 AM 75.9 °F - 73.9 °F 94% 29.92 in 10.0 mi South 6.9 mph - N/A   Overcast
5:27 AM 75.2 °F - 73.4 °F 94% 29.94 in 10.0 mi South 6.9 mph - N/A   Overcast
5:53 AM 73.9 °F - 73.0 °F 97% 29.92 in 10.0 mi SSE 5.8 mph - N/A   Mostly Cloudy
6:53 AM 73.0 °F - 73.0 °F 100% 29.94 in 10.0 mi Calm Calm - N/A   Mostly Cloudy
7:08 AM 73.4 °F - 71.6 °F 94% 29.96 in 10.0 mi SE 3.5 mph - N/A   Scattered Clouds
7:37 AM 71.6 °F - 71.6 °F 100% 29.97 in 8.0 mi Calm Calm - N/A   Mostly Cloudy
7:53 AM 73.0 °F - 73.0 °F 100% 29.96 in 8.0 mi SSE 4.6 mph - N/A   Overcast
8:25 AM 73.4 °F - 73.4 °F 100% 29.99 in 9.0 mi South 4.6 mph - N/A   Overcast
8:53 AM 75.9 °F - 73.9 °F 94% 29.99 in 10.0 mi South 6.9 mph - N/A   Overcast
9:53 AM 79.0 °F - 75.0 °F 88% 29.99 in 10.0 mi South 6.9 mph - N/A   Overcast
10:16 AM 78.8 °F - 75.2 °F 89% 30.02 in 10.0 mi South 10.4 mph - N/A   Overcast
10:53 AM 80.1 °F 85.1 °F 75.0 °F 85% 30.00 in 10.0 mi SSW 6.9 mph - N/A   Overcast
11:05 AM 80.6 °F 86.2 °F 75.2 °F 84% 30.02 in 10.0 mi SW 8.1 mph - N/A   Overcast
11:53 AM 82.0 °F 88.6 °F 75.0 °F 79% 30.00 in 10.0 mi South 5.8 mph - N/A   Overcast
12:51 PM 84.2 °F 92.3 °F 75.2 °F 74% 30.00 in 10.0 mi SSW 5.8 mph - N/A   Mostly Cloudy
12:53 PM 84.9 °F 93.3 °F 75.0 °F 72% 29.98 in 10.0 mi South 3.5 mph - N/A   Scattered Clouds
1:42 PM 86.0 °F 93.4 °F 73.4 °F 66% 29.97 in 10.0 mi Variable 3.5 mph - N/A   Mostly Cloudy
1:53 PM 84.9 °F 90.7 °F 72.0 °F 65% 29.94 in 10.0 mi Calm Calm - N/A   Mostly Cloudy
2:11 PM 86.0 °F 91.8 °F 71.6 °F 62% 29.95 in 10.0 mi Calm Calm - N/A   Scattered Clouds
2:35 PM 84.2 °F 90.9 °F 73.4 °F 70% 29.96 in 10.0 mi South 5.8 mph - N/A Thunderstorm Mostly Cloudy
2:44 PM 82.4 °F 88.2 °F 73.4 °F 74% 29.95 in 9.0 mi South 9.2 mph - 0.00 in Rain Light Rain
2:49 PM 80.6 °F 87.1 °F 77.0 °F 89% 29.95 in 2.5 mi SE 13.8 mph - 0.08 in Rain , Thunderstorm Thunderstorms and Rain
2:53 PM 79.0 °F - 75.9 °F 90% 29.94 in 1.2 mi SE 13.8 mph 17.3 mph 0.18 in Rain , Thunderstorm Heavy Thunderstorms and Rain
3:06 PM 77.0 °F - 77.0 °F 100% 29.97 in 0.5 mi ESE 15.0 mph 23.0 mph 0.45 in Fog , Rain , Thunderstorm Heavy Thunderstorms and Rain
3:16 PM 71.6 °F - 69.8 °F 94% 29.97 in 1.2 mi East 13.8 mph 21.9 mph 0.61 in Rain , Thunderstorm Heavy Thunderstorms and Rain
3:25 PM 73.4 °F - 68.0 °F 83% 29.97 in 3.0 mi SE 16.1 mph 21.9 mph 0.65 in Rain , Thunderstorm Thunderstorms and Rain
3:34 PM 73.4 °F - 69.8 °F 88% 29.98 in 10.0 mi South 9.2 mph - 0.65 in Rain , Thunderstorm Light Thunderstorms and Rain
3:53 PM 75.0 °F - 71.1 °F 87% 29.95 in 10.0 mi SSE 10.4 mph - 0.66 in Thunderstorm Scattered Clouds
4:14 PM 77.0 °F - 71.6 °F 83% 29.97 in 10.0 mi NE 8.1 mph - N/A   Scattered Clouds
4:53 PM 77.0 °F - 71.1 °F 82% 29.93 in 10.0 mi SE 6.9 mph - N/A   Clear
5:53 PM 78.1 °F - 68.0 °F 71% 29.94 in 10.0 mi SSW 6.9 mph - N/A   Clear
6:53 PM 75.9 °F - 71.1 °F 85% 29.96 in 10.0 mi Calm Calm - N/A   Clear
7:53 PM 73.9 °F - 73.0 °F 97% 30.02 in 10.0 mi ENE 9.2 mph - N/A   Clear
8:53 PM 73.9 °F - 70.0 °F 87% 30.05 in 10.0 mi ENE 6.9 mph - N/A   Clear
9:53 PM 72.0 °F - 69.1 °F 91% 30.06 in 10.0 mi SE 8.1 mph - N/A   Clear
10:53 PM 71.1 °F - 68.0 °F 90% 30.07 in 10.0 mi SE 6.9 mph - N/A   Scattered Clouds
11:53 PM 71.1 °F - 69.1 °F 93% 30.06 in 10.0 mi SE 8.1 mph - N/A   Scattered Clouds